Regional Weather Roundup
Issued by NWS

Home | Current Version | Previous Version | Graphics & Text | Print | Product List | Glossary On
Versions: 1 2 3 4 5 6 7 8 9 10 11 12 13 14 15 16 17 18 19 20 21 22 23 24 25 26 27 28 29 30 31 32 33 34 35 36 37 38 39 40 41 42 43 44 45 46 47 48 49 50
630
ASUS43 KBIS 130710
RWRND

NORTH DAKOTA REGIONAL WEATHER ROUNDUP
NATIONAL WEATHER SERVICE BISMARCK ND
100 AM CST WED DEC 13 2017

NOTE: "FAIR" INDICATES FEW OR NO CLOUDS BELOW 12,000 FEET WITH NO
SIGNIFICANT WEATHER AND/OR OBSTRUCTIONS TO VISIBILITY.


NDZ001>003-009>011-017-130800-
NORTHWEST NORTH DAKOTA

CITY           SKY/WX    TMP DP  RH WIND       PRES   REMARKS
WILLISTON      PTCLDY    40  27  59 NW28G39   29.81R
MINOT          CLOUDY    40  30  67 W29G36    29.63R
MINOT AFB      PTCLDY    38  29  70 NW25G32   29.62R
$$

NDZ018>021-031>035-040>046-130800-
SOUTHWEST NORTH DAKOTA

CITY           SKY/WX    TMP DP  RH WIND       PRES   REMARKS
BISMARCK       CLOUDY    45  30  55 NW28G41   29.65R
DICKINSON      CLEAR     42  25  50 NW28G40   29.76R
GARRISON         N/A     40  30  67 NW29G36   29.66R
HETTINGER ARPT CLOUDY    44  23  43 NW30G43   29.81R
$$

NDZ004>008-012>016-024-026-027-054-130800-
NORTHEAST NORTH DAKOTA

CITY           SKY/WX    TMP DP  RH WIND       PRES   REMARKS
GRAND FORKS    RAIN      36  33  89 NW18G26   29.43R
GRND FRKS AFB  LGT RAIN  36  33  90 N16G23    29.44R
DEVILS LAKE    MIX PCPN  35  33  92 NW21G30   29.51R
$$

NDZ022-023-025-028>030-036>039-047>053-130800-
SOUTHEAST NORTH DAKOTA

CITY           SKY/WX    TMP DP  RH WIND       PRES   REMARKS
FARGO          CLOUDY    32  28  85 S6        29.38F
JAMESTOWN      CLOUDY    41  29  62 NW25G35   29.48R
$$





USA.gov is the U.S. government's official web portal to all federal, state and local government web resources and services.